Showing default

ALSAT 1B, 41785

Orbit data source: Space-Track

ALSAT 1B, 41785 is a payload satellite owned by ASAL (DZ) in SSO that was launched on Mon, 26 Sep 2016 UTC via a PSLV launch vehicle from the Sirharikota (SRI). Payloads include a variety of satellites, spacecraft, and rockets equipped with specific instruments for various scientific and technological missions. These include communications satellites like Starlink; space stations such as the ISS; scientific satellites like the Hubble; Earth observation satellites from companies like Planet Labs, Umbra, and HawkEye 360; GPS; miniature CubeSats for education and research; and military/defense satellites.

Loading next visibility...
ALSAT 1B details
Identifier
41785, 2016-059C
Orbit
SSO
Last TLE update8 hours ago
Origin
Flag of DZASAL (DZ / ALG)
ManufacturerSSTL (Astrium)
MissionOperational Civil Imaging
Bus & MotorSSTL-100, Unknown motor
Mass103 kg wet, 103 kg dry
Launch date (UTC)
2016-09-26 (8 years ago)
Launch vehicle
PSLV
Launch site
Sirharikota (SRI)
Object type
Payload
Rocket body
Debris
Shape & HBRBox + 1 Ant, 6.6 m
Radar Cross Section0.862 m², Medium (>0.1 m² and < 1m²)

Expand to show TLE details & history

TLE from 8 hours ago
0 ALSAT 1B
1 41785U 16059C   24361.53035840  .00001229  00000-0  20549-3 0  9997
2 41785  97.8024  22.1313 0010140 146.6147 213.5701 14.71501651441485
Epoch: 2024-12-26T12:43Z
Definitive object data (Epoch: 2024-12-26T12:43:42.965Z)
Latitude-0.00012°
Longitude95.69387°
Altitude665.238 km
Speed7.521 km/s
True Right ascension01h 28m 31s
True Declination0° 00' 00"
Sunlit
Object was in daylight at TLE epoch
Visualization TLE readout
Latitude0.47319°
Longitude95.95536°
Altitude665.065 km
Speed7.522 km/s
Apparent Right ascension04h 03m 12s
Apparent Declination-27° 27' 46"
Sunlit
Object is in daylight
Visualization observer readout
Local Sidereal Time20:16:20
Azimuth97.03° ESE
Elevation-37.005°
Doppler factor1
Orbital elements
Apogee altitude660.456 km
Perigee altitude646.196 km
Semi-major axis7,031.463 km
Eccentricity0.001014
Inclination97.8024°
RAAN22.1313°
Arg. of periapsis146.6147°
True anomaly213.50592°
Mean anomaly213.5701°
Eccentric anomaly213.538°
Mean motion3.68107 °/min
BSTAR0.00020549
Orbital period97.8 mins
Loading maneuver chart data...
Loading historical data...
Loading historical data...
Loading historical data...
Loading historical data...
Loading historical data...
Loading historical data...
Loading historical data...

ALSAT 1B Visibility forecast

Observer location: undefined°, undefined

Span
Click to sort rows by Start time (UTC) header in descending order
Start Az.
Max El. time (UTC)
Max El. Az.
Max El.
End time (UTC)
End Az.
4 mins2024-12-27 00:19:26.309Z91.777° ESE2024-12-27 00:21:26.309Z64.546° ENE13.428°2024-12-27 00:23:26.309Z36.978° NE
7 mins2024-12-27 01:54:26.309Z183.401° SSW2024-12-27 01:57:26.309Z235.015° WSW39.559°2024-12-27 02:01:26.309Z336.719° NNW
6 mins2024-12-27 13:48:26.309Z48.439° ENE2024-12-27 13:50:26.309Z86.923° E26.618°2024-12-27 13:54:26.309Z156.628° SSE
5 mins2024-12-27 15:25:26.309Z329.284° NNW2024-12-27 15:27:26.309Z293.099° NW21.921°2024-12-27 15:30:26.309Z244.331° WSW
|